Regional Weather Roundup
Issued by NWS

Home | Current Version | Previous Version | Text Only | Print | Product List | Glossary On
Versions: 1 2 3 4 5 6 7 8 9 10 11 12 13 14 15 16 17 18 19 20 21 22 23 24 25 26 27 28 29 30 31 32 33 34 35 36 37 38 39 40 41 42 43 44 45 46 47 48 49 50
000
ASUS43 KLSX 031307
RWRMO

WEATHER SUMMARY FOR MISSOURI
NATIONAL WEATHER SERVICE SPRINGFIELD MO
800 AM CDT WED JUN 03 2015

NOTE: "FAIR" INDICATES FEW OR NO CLOUDS BELOW 12,000 FEET WITH NO
       SIGNIFICANT WEATHER AND/OR OBSTRUCTIONS TO VISIBILITY.
       CURRENT SKY AND/OR WEATHER CONDITIONS ARE NOT AVAILABLE FOR
       CHILLICOTHE AND FARMINGTON.

MOZ001>031-035>038-043-044-053-054-031400-
...NORTHERN AND WESTERN MISSOURI...

CITY           SKY/WX    TMP DP  RH WIND       PRES   REMARKS
KANSAS CTY INT CLOUDY    66  63  90 S12       29.92R
KANSAS C DTWN  CLOUDY    69  61  75 S7        29.92S
LEE`S SUMMIT   CLOUDY    65  61  87 S7        29.94S
ST JOSEPH      LGT RAIN  65  63  93 N5        29.95F
CHILLICOTHE      N/A     64  58  80 SE6       29.97R
KIRKSVILLE     CLOUDY    62  59  90 S8        29.99S

$$
MOZ066>068-077>081-088>096-101>105-031400-
...SOUTHWEST MISSOURI...

CITY           SKY/WX    TMP DP  RH WIND       PRES   REMARKS
SPRINGFIELD    CLOUDY    62  59  90 S14       29.99S
JOPLIN         SUNNY     70  64  81 SE12      29.97R

$$
MOZ032>034-039>042-045>050-055>058-069>072-031400-
...CENTRAL MISSOURI...

CITY           SKY/WX    TMP DP  RH WIND       PRES   REMARKS
COLUMBIA       CLOUDY    60  57  89 S13       30.00S
JEFFERSON CITY MOSUNNY   60  56  86 SE10      30.01S
ROLLA          MOSUNNY   59  57  93 S9        30.02R
SEDALIA        CLOUDY    64  59  83 S9        29.98F
WHITEMAN AFB   LGT RAIN  62  60  91 S7        29.95F
WARRENSBURG    TSTM      63  59  88 CALM      29.96R
OSAGE BEACH    CLOUDY    61  55  82 SE7       30.00F

$$
MOZ051-052-059>065-031400-
...EAST CENTRAL MISSOURI...

CITY           SKY/WX    TMP DP  RH WIND       PRES   REMARKS
ST LOUIS INTL  PTSUNNY   64  55  72 S6        30.06R
SPIRIT OF STL  CLOUDY    61  58  90 S5        30.04S
ST CHARLES     CLOUDY    62  58  86 E6        30.05S

$$
MOZ072>076-082>087-097>100-106>115-031400-
...SOUTH CENTRAL AND SOUTHEAST MISSOURI...

CITY           SKY/WX    TMP DP  RH WIND       PRES   REMARKS
CAPE GIRARDEAU CLOUDY    63  59  87 E3        30.06R
FARMINGTON     CLOUDY    61  55  82 S9        30.09S
POPLAR BLUFF   CLOUDY    62  58  86 NE3       30.04S FOG
WEST PLAINS    CLOUDY    59  56  89 SE6       30.05S FOG

$$



USA.gov is the U.S. government's official web portal to all federal, state and local government web resources and services.